Location: Winthrop
(48.4780°N, 120.1850°W)
Time: 18:59:22
(UTC-08:00)

Envisat - Pass Details

Date: 29 November 2022
Orbit: 763 x 765 km, 98.2° (Epoch: 05 February)

Event Time Altitude Azimuth Distance (km) Brightness Sun altitude
Rises 05:29:06 0° 5° (N) 3,245 6.2 -19.2°
Reaches altitude 10° 05:31:40 10° 355° (N) 2,314 5.3 -18.8°
Enters shadow 05:34:52 26° 319° (NW) 1,483 4.0 -18.2°
